Regional Weather Roundup
Issued by NWS

Home | Current Version | Previous Version | Text Only | Print | Product List | Glossary On
Versions: 1 2 3 4 5 6 7 8 9 10 11 12 13 14 15 16 17 18 19 20 21 22 23 24 25 26 27 28 29 30 31 32 33 34 35 36 37 38 39 40 41 42 43 44 45 46 47 48 49 50
000
ASUS44 KMEG 260310
RWRTN
TENNESSEE HOURLY STATE WEATHER ROUNDUP
NATIONAL WEATHER SERVICE MEMPHIS TN
1000 PM CDT SAT APR 25 2015

TNZ002-004-019-021-049-052-054-088>092-260400-
WEST TENNESSEE

CITY           SKY/WX    TMP DP  RH WIND       PRES   REMARKS
MEMPHIS INTL   CLEAR     73  59  61 SW8       29.60R
NWS MEMPHIS      N/A     69 N/A N/A MISG        N/A
JACKSON        CLEAR     66  57  72 SW7       29.58R
DYERSBURG      PTCLDY    70  52  52 W6        29.58R
UNION CITY     PTCLDY    61  32  33 NE8       29.60R
PARIS          CLOUDY    61  57  88 N7        29.63R
LEXINGTON      CLEAR     70  55  60 SW6       29.57R
SAVANNAH       CLEAR     63  32  31 CALM      29.60R
$$

TNZ008-025-027-028-033-062-065-066-260400-
NORTH MIDDLE TENNESSEE

CITY           SKY/WX    TMP DP  RH WIND       PRES   REMARKS
NASHVILLE      CLOUDY    72  57  59 N13       29.58R
CLARKSVILLE    RAIN      61  60  97 W3        29.60R FOG
SMYRNA         PTCLDY    73  65  76 SW9       29.56R
COOKEVILLE     PTCLDY    70  64  83 SW9       29.53S
CROSSVILLE     PTCLDY    67  59  75 SW8G22    29.56F
$$

TNZ061-075-076-078-094-096-097-260400-
SOUTH MIDDLE TENNESSEE

CITY           SKY/WX    TMP DP  RH WIND       PRES   REMARKS
FAYETTEVILLE   CLEAR     66  66 100 SW8       29.62R
TULLAHOMA      CLEAR     68  64  88 SW8       29.62R
WINCHESTER     CLEAR     70  64  83 W10       29.62R
MCMINNVILLE    CLEAR     70  66  88 SW9       29.57S
COLUMBIA       CLEAR     70  32  24 SW8       29.57R
SHELBYVILLE    CLEAR     70  66  88 SW6       29.60R
$$

TNZ017-018-042-046-047-260400-
NORTHEAST TENNESSEE

CITY           SKY/WX    TMP DP  RH WIND       PRES   REMARKS
TRI CITIES     PTCLDY    58  56  93 CALM      29.54F
ELIZABETHTON   CLEAR     54  54 100 CALM      29.56F
$$

TNZ012-013-036-069-073-074-260400-
CENTRAL EAST TENNESSEE

CITY           SKY/WX    TMP DP  RH WIND       PRES   REMARKS
KNOXVILLE      CLEAR     69  60  73 S17G25    29.54F
OAK RIDGE      CLOUDY    69  63  81 SW6       29.54F
GATLINBURG     CLEAR     70  54  56 SW9       29.53F
MORRISTOWN     CLEAR     68  61  77 SW15      29.54F
$$

TNZ083-085-099-260400-
SOUTHEAST TENNESSEE

CITY           SKY/WX    TMP DP  RH WIND       PRES   REMARKS
CHATTANOOGA    PTCLDY    71  65  81 S9        29.60R
$$

SKY/WX REPORTED AS FAIR MEANS FEW OR NO CLOUDS BELOW
12 THOUSAND FEET.




USA.gov is the U.S. government's official web portal to all federal, state and local government web resources and services.